TimeEST,TemperatureF,Dew PointF,Humidity,Sea Level PressureIn,VisibilityMPH,Wind Direction,Wind SpeedMPH,Gust SpeedMPH,PrecipitationIn,Events,Conditions,WindDirDegrees,DateUTC
12:51 AM,25.0,24.1,96,30.45,9.0,Calm,Calm,-,N/A,,Partly Cloudy,0,2012-11-14 05:51:00
1:51 AM,27.0,26.1,96,30.47,10.0,Calm,Calm,-,N/A,,Overcast,0,2012-11-14 06:51:00
2:51 AM,28.9,28.0,96,30.47,10.0,Calm,Calm,-,N/A,,Overcast,0,2012-11-14 07:51:00
3:51 AM,30.9,28.0,89,30.49,10.0,Calm,Calm,-,N/A,,Overcast,0,2012-11-14 08:51:00
4:51 AM,30.9,28.0,89,30.50,10.0,Calm,Calm,-,N/A,,Overcast,0,2012-11-14 09:51:00
5:51 AM,28.0,27.0,96,30.53,10.0,Calm,Calm,-,N/A,,Clear,0,2012-11-14 10:51:00
6:51 AM,27.0,24.1,89,30.56,10.0,Calm,Calm,-,N/A,,Clear,0,2012-11-14 11:51:00
7:51 AM,30.9,28.9,92,30.57,10.0,Calm,Calm,-,N/A,,Clear,0,2012-11-14 12:51:00
8:51 AM,35.1,27.0,72,30.58,10.0,NW,3.5,-,N/A,,Clear,320,2012-11-14 13:51:00
9:51 AM,37.9,26.1,62,30.58,10.0,WNW,4.6,-,N/A,,Clear,290,2012-11-14 14:51:00
10:51 AM,41.0,26.1,55,30.56,10.0,Variable,4.6,-,N/A,,Clear,0,2012-11-14 15:51:00
11:51 AM,44.1,23.0,43,30.52,10.0,Variable,3.5,-,N/A,,Clear,0,2012-11-14 16:51:00
12:51 PM,45.0,21.0,39,30.51,10.0,NW,4.6,-,N/A,,Clear,310,2012-11-14 17:51:00
1:51 PM,46.0,21.0,37,30.50,10.0,NNW,8.1,-,N/A,,Clear,330,2012-11-14 18:51:00
2:51 PM,46.0,19.9,35,30.49,10.0,NNW,4.6,-,N/A,,Clear,330,2012-11-14 19:51:00
3:51 PM,44.1,19.0,37,30.50,10.0,North,3.5,-,N/A,,Clear,10,2012-11-14 20:51:00
4:51 PM,37.9,21.9,53,30.51,10.0,NW,5.8,-,N/A,,Clear,320,2012-11-14 21:51:00
5:51 PM,35.1,21.9,59,30.53,10.0,NW,4.6,-,N/A,,Clear,320,2012-11-14 22:51:00
6:51 PM,30.0,21.9,72,30.53,10.0,Calm,Calm,-,N/A,,Clear,0,2012-11-14 23:51:00
7:51 PM,28.9,25.0,85,30.53,10.0,Calm,Calm,-,N/A,,Clear,0,2012-11-15 00:51:00
8:51 PM,27.0,23.0,85,30.54,10.0,NE,4.6,-,N/A,,Clear,40,2012-11-15 01:51:00
9:51 PM,25.0,21.9,88,30.53,10.0,Calm,Calm,-,N/A,,Clear,0,2012-11-15 02:51:00
10:51 PM,24.1,21.9,91,30.53,10.0,Calm,Calm,-,N/A,,Clear,0,2012-11-15 03:51:00
11:51 PM,23.0,21.0,92,30.53,10.0,Calm,Calm,-,N/A,,Clear,0,2012-11-15 04:51:00